Reflectivity
-20 -20 -20 -20 -20 -20 -20 -0 -20 -20 -20 -20 -20 -20 -20 9 8 4 -20 -20 -20 -20 -20 -20 -20 -20 -20 -20 -20 -20 -20 -20 -20 -20 -20 -20 -20 -20 -20 -20 -20 -20 -20 -20
-20 -20 -20 -20 -20 -20 -20 -20 -20 -20 -20 -20 -20 -20 -20 -5 -20 -2 0 -5 -20 -20 -20 -20 -20 -20 -20 -20 -20 -20 -20 -20 -20 -20 -20 -20 -20 -20 -20 -20 -20 -20 -20 -20
-20 -20 -20 -20 -20 -20 -20 -20 -20 -20 -20 -20 -20 -20 -20 -20 -20 -17 6 -18 23 -20 -20 -20 -20 -20 -20 -20 -20 -20 -20 -20 -20 -20 -20 -20 -20 -20 -20 -20 -20 -20 -20 -19
-20 -20 -20 -20 -20 -20 -20 -20 -20 -20 -20 -20 -20 10 -8 -20 7 9 14 -6 -16 -20 6 2 -20 -20 -20 -20 -20 -20 -20 -20 -20 -20 -20 -20 -20 -20 -20 -20 -20 -20 -20 22
-20 -20 -20 -20 -20 -20 -20 -20 -20 -20 -20 -20 -20 -20 -20 -20 -2 18 -6 8 -19 -20 -14 -2 -20 -20 -20 -20 -20 -20 -20 -20 -20 -20 -20 -20 -20 -20 -20 -20 -20 -20 -20 -20
-20 -20 -20 -20 -20 -20 -20 -20 -20 -20 -20 -20 -20 -20 -20 -20 -20 -20 -20 -20 -20 -20 4 16 -12 -20 -20 -20 -20 -20 -20 -20 -20 -20 -20 -20 -20 -20 -20 -20 -20 -20 -20 -20
-20 -20 -20 -20 -20 -20 -20 -20 -20 -20 -20 -20 -20 -20 -20 -20 -20 -20 -20 -20 -20 -17 -20 -20 -20 -20 -20 -20 -20 -20 -20 -20 -20 -20 -20 -20 -20 -20 -0 -20 -20 -20 -20 -20
-20 -20 -20 -20 -20 -20 -20 -20 -20 -20 -20 -20 -20 -20 -20 -20 -20 -20 -20 -20 -20 -20 -20 -13 -18 -20 -20 -20 -20 -20 -20 -20 -20 -20 -20 -20 -20 -20 -20 -20 -20 -20 -20 -20
-20 -20 -20 -20 -20 -20 -20 -20 -20 -20 -20 -20 -20 -20 -20 -20 -20 -20 1 0 -20 -20 -20 -17 27 -19 -18 -20 -20 -20 -20 -20 -20 -20 -20 -20 -20 -20 -20 -20 -20 -20 -20 -20
-20 -20 -20 -20 -20 -20 -20 -20 -20 -20 -20 -20 -20 -20 -20 -20 -20 -20 -20 1 -13 -19 -20 13 -14 -20 -20 -20 -20 -20 -20 -20 -20 -20 -20 -20 -20 -20 -20 -20 -20 -20 -20 -20
-20 -20 -20 -20 -20 -20 -20 -20 -20 -20 -20 -20 -20 -20 -20 -20 -20 -20 -5 4 3 -20 -20 -3 -20 -20 -20 -20 -20 -20 -20 -20 -20 -20 -20 -20 -20 -20 -20 -20 -20 -20 -20 -20
-20 -20 -20 -20 -20 -20 -20 -20 -20 -20 -20 -20 -20 -20 -20 -20 -20 -20 -3 -6 -4 -19 -20 -15 0 32 14 -19 -20 -20 -20 -20 -20 -20 -20 -20 -20 -20 -20 -20 -20 -20 -20 -20
-20 -20 -20 -20 -20 -20 -20 -20 -20 -20 -20 -20 -20 -20 -20 -20 -14 2 2 -17 -20 -20 -20 -20 -20 -19 4 -15 -20 17 -20 -20 -20 -20 -20 -20 -20 -20 -20 -20 -20 -20 -20 -20
-20 -20 -20 -20 -20 -20 -20 -20 -20 -20 -20 -20 -20 -20 -20 -20 -20 1 -11 -20 -20 -20 -20 -20 -20 -20 -20 -18 1 7 -20 -20 -20 -20 -20 -20 -20 -20 -20 -20 -20 -20 -20 -20
-20 -20 -20 -20 -20 -20 -20 -20 -20 -20 -20 -20 -20 -20 -20 -20 -20 -20 -15 -20 -20 -20 -20 -20 -13 -20 -20 -14 20 31 27 -20 -19 -20 -20 -20 -20 -20 -20 -20 -20 -20 -20 -20
-20 -20 -20 -20 -20 -20 -20 -20 -20 -20 -20 -20 -20 -20 -20 -20 -20 -20 -20 -20 -20 -20 -20 -20 -20 -20 -20 -20 -20 34 25 28 6 15 9 -20 -20 -20 -20 -20 -20 -20 -20 -20
-20 -20 -20 -20 -20 -20 -20 -20 -20 -20 -20 -20 -20 -20 -20 -20 -20 -20 -20 -20 -20 -20 -20 -20 -20 -20 -20 -20 -20 -6 -9 14 26 23 -2 6 13 8 1 -17 -15 -20 -20 -20
-20 -20 -20 -20 -20 -20 -20 -20 -20 -20 -20 -20 -20 -20 -20 -20 -20 -20 -20 -20 -20 -20 -20 -20 -20 -20 -20 -20 -20 -20 -20 -17 -17 -7 20 22 -2 5 6 9 7 -14 -20 -20
-20 -20 -20 -20 -20 -20 -20 -20 -20 -20 -20 -20 -20 -20 -20 -20 -20 -20 -20 -20 -20 -20 -20 -20 -20 -20 -20 -20 -20 -20 -20 -20 -7 -4 3 -20 19 -4 -13 19 12 13 -1 6
-20 -20 -20 -20 -20 -20 -20 -20 -20 -20 -20 -20 -20 -20 -20 -20 -20 -20 -20 -20 -20 -20 -20 -20 -20 -20 -20 -20 -20 -20 -20 -20 -20 -20 -7 -18 -20 6 14 8 11 26 28 7
-20 -20 -20 -20 -20 -20 -20 -20 -20 -20 -20 -20 -20 -20 -20 -20 -20 -20 -20 -20 -20 -20 -20 -20 -20 -20 -20 -20 -20 -20 -20 -20 -20 -20 -20 -20 3 6 19 -9 17 12 29 30
-20 -20 -20 -20 -20 -20 -20 -20 -20 -20 -20 -20 -20 -20 -20 -20 -20 -20 -20 -20 -20 -20 -20 -20 -20 -20 -20 -20 -20 -20 -20 -20 -20 -20 -20 -20 -20 -20 -3 16 20 0 11 15
-20 -20 -20 -20 -20 -20 -20 -20 -20 -20 -20 -20 -20 -20 -20 -20 -20 -20 -20 -20 -20 -20 -20 -20 -20 -20 -20 -20 -20 -20 -20 -20 -20 -20 -20 -20 -20 -20 -20 -20 -7 15 29 16
-20 -20 -20 -20 -20 -20 -20 -20 -20 -20 -20 -20 -20 -20 -20 -20 -20 -20 -20 -20 -20 -20 -20 -20 -20 -20 -20 -20 -20 -20 -20 -20 -20 -20 -20 -20 -20 -20 -20 -20 -20 -20 11 24
-20 -20 -20 -20 -20 -20 -20 -20 -20 -20 -20 -20 -20 -20 -20 -20 -20 -20 -20 -20 -20 -20 -20 -20 -11 -10 0 -13 -20 -20 -20 -20 -20 -20 -20 -20 -20 -20 -20 -19 -20 -20 -20 1
-20 -20 -20 -20 -20 -20 -20 -20 -20 -20 -20 -20 -20 -20 -20 -20 -20 -20 -20 -20 -20 -20 -20 -6 5 -8 2 -6 -2 -6 -20 -20 -20 -20 -20 -20 -20 -20 -20 -20 8 -19 -20 -20
Wind_Speed
14 11 16 17 17 8 12 11 12 10 8 7 7 13 14 15 13 12 15 16 18 18 18 16 14 13 13 12 13 13 12 12 9 8 8 6 7 5 5 4 4 5 4 4
11 16 14 12 8 9 11 12 14 10 6 7 9 10 14 15 11 15 15 15 18 19 20 17 15 14 14 14 13 12 12 12 11 8 6 4 3 4 6 6 5 5 5 5
14 11 11 14 13 13 13 14 11 13 6 2 12 9 10 15 14 11 14 14 16 20 20 19 16 15 14 14 14 13 13 12 11 9 6 5 4 3 6 6 6 6 6 6
11 7 17 17 16 16 16 4 6 9 11 10 14 8 6 5 7 7 9 13 14 19 16 19 18 16 16 15 15 13 13 13 12 11 8 8 6 6 5 6 5 5 6 6
10 15 18 17 16 14 5 10 10 8 10 4 13 8 10 9 9 12 12 12 16 15 19 20 20 19 18 16 14 15 14 13 12 12 10 8 9 6 5 5 7 6 5 6
6 11 15 11 10 12 8 10 9 8 10 12 10 11 7 6 4 3 2 8 17 18 16 18 19 19 17 16 16 14 15 13 13 13 13 11 9 9 5 5 6 6 7 7
11 11 4 4 14 13 14 16 11 12 10 9 12 8 12 8 6 6 6 6 10 22 19 16 19 20 19 18 16 15 16 16 16 16 14 13 12 10 8 8 8 5 5 5
12 13 6 2 7 11 19 18 10 13 13 12 6 10 10 8 8 10 11 10 8 13 19 21 15 19 20 18 17 16 16 16 17 16 16 13 12 9 10 10 8 7 6 6
11 8 5 3 1 6 19 16 7 8 11 9 14 15 13 8 11 13 15 13 10 1 9 16 24 18 18 19 18 17 16 15 16 17 14 14 13 13 10 10 8 8 7 5
3 10 2 3 4 2 8 8 10 10 14 15 11 16 11 7 10 13 14 15 16 11 5 8 15 17 15 17 18 18 17 16 16 17 15 14 15 14 13 10 11 11 8 9
2 6 9 7 3 1 8 11 10 9 6 14 11 8 7 9 8 10 12 14 15 18 16 3 1 2 10 13 14 16 16 16 14 15 15 15 14 15 14 13 12 13 11 9
4 5 9 8 6 1 4 6 9 11 12 6 6 10 7 12 7 9 12 14 15 17 18 17 19 12 8 10 12 13 13 15 15 13 12 15 14 13 14 14 14 13 13 12
4 4 9 10 9 5 4 1 4 9 8 12 10 11 9 11 12 10 12 14 14 17 18 17 18 16 15 18 9 9 10 13 13 12 12 13 13 14 14 15 13 13 13 14
6 1 8 0 9 4 7 3 1 9 11 8 3 19 14 11 11 12 11 13 15 15 16 16 16 15 15 16 14 14 15 9 8 10 12 12 13 13 14 13 14 14 13 13
5 3 2 8 6 4 2 2 2 1 6 6 19 17 13 10 10 10 11 12 14 15 16 15 15 13 14 13 13 12 11 11 12 10 11 12 12 13 12 11 14 16 15 14
2 3 2 2 2 1 5 4 2 2 4 7 11 15 10 9 9 9 10 11 13 14 14 14 14 13 13 14 12 11 11 12 12 9 11 11 10 11 12 13 14 14 15 15
1 6 6 5 2 3 9 11 7 6 3 6 9 15 9 9 8 8 9 10 11 12 12 12 13 13 13 13 13 12 9 10 11 14 8 8 10 10 10 12 13 14 15 16
4 6 3 3 5 9 9 4 1 6 8 4 8 8 6 6 5 9 10 10 11 12 12 12 12 12 12 13 13 13 11 8 10 11 13 14 14 12 12 11 11 13 13 14
5 5 4 5 10 6 7 6 6 12 11 4 8 6 5 3 4 9 7 9 9 11 10 11 12 13 11 12 12 11 12 11 7 9 10 11 12 13 12 9 12 12 10 12
5 5 7 6 4 6 10 8 4 2 8 6 4 5 2 3 9 12 5 7 9 9 10 11 13 12 12 12 13 12 10 11 12 13 9 9 9 11 12 12 11 10 12 14
8 6 10 9 6 2 7 8 6 8 8 8 5 3 0 3 8 8 8 8 8 9 10 11 11 11 11 12 14 14 12 11 11 12 13 12 7 9 11 10 10 11 11 12
8 6 6 6 6 7 11 9 6 9 8 7 4 2 2 3 4 7 9 10 10 11 11 11 10 10 11 11 12 13 13 13 12 11 11 12 13 10 6 10 9 12 12 12
6 4 3 5 3 6 11 6 7 3 1 4 2 2 3 4 5 8 9 10 11 12 11 12 11 13 12 12 11 13 14 14 14 13 13 11 12 12 11 10 10 8 9 10
5 4 4 3 10 9 8 5 5 4 5 5 3 2 1 2 4 7 9 10 10 10 12 12 14 13 14 13 13 14 14 15 14 14 13 12 11 8 12 10 9 7 7 8
3 8 6 7 5 5 8 7 8 8 7 6 5 3 2 2 3 7 9 11 12 12 11 12 13 14 16 17 16 15 15 14 15 14 13 12 11 10 6 11 10 10 11 7
8 9 6 5 7 8 5 13 11 10 9 6 4 4 4 3 4 5 7 8 11 12 12 11 11 14 16 15 17 17 15 14 14 14 12 9 10 11 10 7 11 9 12 12
Wind_Direction
189 200 203 190 209 333 179 186 156 105 150 186 150 137 153 166 180 181 184 191 183 186 182 178 183 176 179 184 182 183 182 174 185 183 186 186 186 176 188 182 156 169 177 167
174 218 192 184 171 192 199 167 140 134 113 228 159 161 147 155 181 187 189 189 192 188 184 187 186 182 187 185 187 188 190 182 197 190 200 210 225 188 161 206 178 189 174 181
200 188 154 195 184 194 196 191 163 159 153 185 152 141 167 162 149 194 175 211 195 196 195 187 191 191 188 184 189 191 193 187 195 202 191 186 181 184 189 169 183 182 199 186
220 139 183 190 192 209 177 232 160 172 200 184 219 117 108 155 207 182 191 194 219 190 214 191 195 195 196 192 192 188 195 196 195 199 196 214 217 202 188 190 173 148 190 189
175 181 188 190 192 206 187 166 197 194 221 200 200 234 98 127 170 201 201 190 213 229 199 201 193 191 199 197 196 192 190 199 206 199 230 202 239 206 186 209 138 179 182 196
129 194 194 189 176 203 120 175 174 198 217 221 183 248 98 87 46 125 198 255 202 216 213 206 197 190 200 200 204 196 191 197 203 206 209 221 221 249 230 212 184 192 189 174
161 162 125 275 197 195 199 180 172 194 200 228 145 218 76 91 53 16 6 339 246 193 211 213 203 198 197 197 198 200 197 203 202 204 211 214 221 218 229 210 226 200 195 198
169 164 189 233 250 191 206 206 192 190 195 167 148 155 106 100 72 44 24 19 351 207 192 193 223 201 199 201 195 200 197 207 206 207 211 211 217 218 220 215 233 199 220 193
191 102 132 62 304 278 191 224 328 277 205 201 144 86 124 105 60 42 31 21 4 255 246 197 192 207 207 200 201 204 205 205 211 210 210 208 208 221 227 250 216 230 233 225
82 132 164 101 212 163 281 216 203 238 187 213 158 168 100 88 44 37 25 21 9 22 203 240 202 193 201 207 205 209 208 206 211 212 209 210 209 213 218 231 237 252 250 233
281 263 137 194 307 157 172 206 238 263 281 219 152 138 90 80 62 47 35 30 28 23 32 172 165 162 208 209 209 210 214 215 211 210 214 218 213 213 215 219 229 235 237 238
23 278 168 103 121 191 299 329 264 228 196 259 270 98 109 97 74 76 62 49 42 36 37 33 25 12 188 211 238 207 218 217 216 218 213 219 222 219 217 219 218 227 230 230
3 192 158 166 168 178 215 133 265 272 288 207 237 120 136 116 102 69 68 71 54 50 47 42 33 34 26 17 355 253 223 231 223 204 219 227 225 222 226 225 221 219 224 227
270 87 325 326 61 66 159 141 326 272 235 202 216 128 139 117 95 86 73 72 77 62 52 47 45 38 30 20 15 8 354 313 257 234 208 218 229 229 225 230 230 223 222 227
332 136 51 61 59 71 101 106 43 56 348 284 131 137 126 111 95 74 75 67 61 57 57 50 43 40 33 32 22 10 356 354 334 293 251 233 222 223 232 227 227 229 225 223
353 134 154 107 56 15 238 176 147 116 102 93 128 112 115 118 109 87 67 60 55 49 43 39 39 38 36 31 26 13 3 355 337 299 283 273 254 240 235 227 232 235 237 227
322 155 207 182 163 262 233 216 197 134 162 153 180 111 144 129 100 66 62 55 44 37 35 27 26 23 19 18 21 22 16 358 357 353 310 290 277 266 257 242 241 234 234 237
179 184 213 143 190 223 77 86 175 176 120 140 109 114 100 98 101 94 58 43 30 21 11 9 9 8 9 8 10 5 15 20 10 6 359 355 344 332 266 247 244 243 239 238
282 213 167 220 215 84 166 184 178 182 145 127 136 145 127 130 181 137 59 28 15 0 353 353 351 348 346 355 355 359 359 4 23 6 357 344 339 328 320 295 255 245 240 242
185 273 249 194 232 230 79 135 148 181 175 147 176 146 146 248 224 94 34 2 357 350 348 341 339 331 338 345 339 340 351 350 359 353 350 344 330 325 331 315 293 277 250 236
181 207 222 209 232 211 109 141 165 218 88 134 136 126 97 290 355 2 341 344 341 337 331 333 323 323 329 332 333 326 332 342 346 341 338 338 332 324 321 318 310 299 272 257
191 199 201 218 224 229 150 148 230 90 124 129 135 121 318 335 323 327 329 324 324 325 330 330 318 317 319 321 319 318 319 330 326 327 328 333 332 323 308 311 315 305 297 273
233 252 262 239 51 109 164 57 105 119 166 157 238 159 274 291 315 325 321 322 320 319 327 328 322 317 312 312 311 305 308 314 313 315 318 321 325 325 321 313 307 293 287 280
215 241 252 324 168 166 163 142 134 133 117 127 134 154 168 335 347 345 346 343 338 335 332 330 324 319 312 308 301 295 297 301 302 301 304 309 311 313 315 315 305 292 297 282
205 159 211 251 216 209 209 199 168 160 153 152 147 154 121 299 328 342 346 347 349 342 331 339 330 332 333 324 302 292 287 286 288 288 292 298 297 303 302 300 304 303 296 295
193 199 195 207 213 211 128 180 173 169 171 172 181 179 192 256 310 341 340 359 351 340 324 322 323 323 320 314 305 297 286 277 276 280 281 290 305 295 300 295 297 268 254 280